Location: Hains Lake
(37.8540°N, 99.8578°W)
Time: 22:57:58
(UTC+00:00)

Explorer 7 - Pass Details

Date: 22 April 2021
Orbit: 484 x 677 km, 50.3° (Epoch: 14 May)

Event Time Altitude Azimuth Distance (km) Brightness Sun altitude
Rises 04:42:54 0° 300° (WNW) 2,711 11.2 -33.1°
Reaches altitude 10° 04:45:54 10° 324° (NW) 1,861 10.3 -33.4°
Maximum altitude 04:48:29 15° 1° (N) 1,573 9.6 -33.7°
Enters shadow 04:48:39 15° 4° (N) 1,577 9.6 -33.7°
